Weather History for TGPY - January, 2013

Change the Weather History Date:

Sunday, January 20, 2013

  Actual Average Record
Temperature  
Mean Temperature 79 °F -  
Max Temperature 85 °F 83 °F 87 °F (2003)
Min Temperature 73 °F 73 °F 71 °F (2002)
Cooling Degree Days 14    
Growing Degree Days 29 (Base 50)    
Moisture  
Dew Point 72 °F    
Average Humidity 79    
Maximum Humidity 94    
Minimum Humidity 53    
Precipitation  
Precipitation 0.02 in - - ()
Sea Level Pressure  
Sea Level Pressure 29.96 in    
Wind  
Wind Speed 6 mph ()    
Max Wind Speed 16 mph    
Max Gust Speed -    
Visibility 8.1 miles    
Events Rain    
Averages and records for this station are not official NWS values.
T = Trace of Precipitation, MM = Missing Value Source: Averaged Metar Reports

Daily Weather History Graph

Daily Weather History Graph

Search for Another Location

Airport or City:

Trip Planner

Search our weather history database for the weather conditions in past years. The results will help you decide how hot, cold, wet, or windy it might be!

Date:

Astronomy

Jan. 20, 2013 Rise Set
Actual Time 6:32 AM AST 6:04 PM AST
Civil Twilight 6:09 AM AST 6:26 PM AST
Nautical Twilight 5:44 AM AST 6:52 PM AST
Astronomical Twilight 5:18 AM AST 7:18 PM AST
Moon 12:59 PM AST (1/20) 1:06 AM AST (1/20)
Length of Visible Light 12h 16m
Length of Day
11h 31m
Waxing Gibbous, 66% of the Moon is Illuminated
Jan 20
Waxing Gibbous
Jan 27
Full
Feb 3
Last Quarter
Feb 10
New
Feb 17
First Quarter

Hourly Weather History & Observations

Time (AST) Temp. Heat Index Dew Point Humidity Pressure Visibility Wind Dir Wind Speed Gust Speed Precip Events Conditions
12:00 AM 75.2 °F - 69.8 °F 83% 29.98 in 6.2 mi Calm Calm - N/A   Scattered Clouds
1:00 AM 77.0 °F - 71.6 °F 83% 29.95 in 6.2 mi Calm Calm - N/A   Mostly Cloudy
2:00 AM 77 °F - 72 °F 80% 29.94 in 14 mi Calm Calm - -   Widespread Dust
2:00 AM 77.0 °F - 71.6 °F 83% 29.92 in 6.2 mi Calm Calm - N/A   Scattered Clouds
3:00 AM 77.0 °F - 71.6 °F 83% 29.92 in 6.2 mi Calm Calm - N/A   Scattered Clouds
4:00 AM 75.2 °F - 69.8 °F 83% 29.92 in 6.2 mi East 9.2 mph - N/A   Mostly Cloudy
5:00 AM 75 °F - 71 °F 84% 29.94 in 12 mi Calm Calm - - Rain Light Rain Showers
5:00 AM 75.2 °F - 71.6 °F 89% 29.92 in 6.2 mi East 8.1 mph - N/A   Mostly Cloudy
6:00 AM 75.2 °F - 71.6 °F 89% 29.95 in 6.2 mi East 9.2 mph - N/A   Mostly Cloudy
7:00 AM 77.0 °F - 71.6 °F 83% 29.98 in 6.2 mi East 8.1 mph - N/A   Scattered Clouds
8:00 AM 80 °F - 72 °F 72% 30.00 in 15 mi East 8.1 mph - -   Widespread Dust
8:00 AM 80.6 °F 85.4 °F 73.4 °F 79% 29.98 in 6.2 mi East 8.1 mph - N/A   Partly Cloudy
9:00 AM 80.6 °F 84.6 °F 71.6 °F 74% 30.01 in 6.2 mi East 9.2 mph - N/A   Scattered Clouds
10:00 AM 82.4 °F 87.2 °F 71.6 °F 70% 30.01 in 6.2 mi East 15.0 mph - N/A   Mostly Cloudy
11:00 AM 85 °F - 70 °F 53% 30.01 in 16 mi East 11.5 mph - -   Mostly Cloudy
11:00 AM 84.2 °F 88.4 °F 69.8 °F 62% 30.01 in 6.2 mi East 11.5 mph - N/A   Mostly Cloudy
12:00 PM 84.2 °F 88.4 °F 69.8 °F 62% 29.98 in 6.2 mi ESE 12.7 mph - N/A   Mostly Cloudy
1:00 PM 84.2 °F 90.9 °F 73.4 °F 70% 29.95 in 6.2 mi East 16.1 mph - N/A   Scattered Clouds
2:00 PM 83 °F - 72 °F 61% 29.93 in 16 mi ESE 15.0 mph - -   Mostly Cloudy
2:00 PM 84.2 °F 89.6 °F 71.6 °F 66% 29.92 in 6.2 mi ESE 15.0 mph - N/A   Mostly Cloudy
3:00 PM 84.2 °F 90.9 °F 73.4 °F 70% 29.92 in 6.2 mi SE 13.8 mph - N/A   Mostly Cloudy
4:00 PM 84.2 °F 90.9 °F 73.4 °F 70% 29.92 in 6.2 mi SE 13.8 mph - N/A   Scattered Clouds
5:00 PM 77 °F - 72 °F 81% 29.93 in 11 mi ENE 8.1 mph - - Rain Light Rain Showers
5:00 PM 77.0 °F - 71.6 °F 83% 29.92 in 6.2 mi ENE 8.1 mph - N/A   Mostly Cloudy
6:00 PM 78.8 °F - 73.4 °F 83% 29.92 in 6.2 mi ENE 5.8 mph - N/A   Mostly Cloudy
7:00 PM 77.0 °F - 73.4 °F 89% 29.95 in 6.2 mi ENE 4.6 mph - N/A   Mostly Cloudy
8:00 PM 77 °F - 73 °F 85% 29.96 in 12 mi East 10.4 mph - -   Mostly Cloudy
8:00 PM 77.0 °F - 73.4 °F 89% 29.95 in 6.2 mi East 10.4 mph - N/A   Mostly Cloudy
9:00 PM 77.0 °F - 73.4 °F 89% 29.98 in 6.2 mi East 9.2 mph - N/A Rain Light Rain Showers
10:00 PM 77.0 °F - 73.4 °F 89% 29.98 in 6.2 mi East 9.2 mph - N/A   Scattered Clouds
11:00 PM 75 °F - 72 °F 89% 29.99 in 16 mi East 9.2 mph - -   Partly Cloudy
11:00 PM 75.2 °F - 73.4 °F 94% 29.98 in 6.2 mi East 9.2 mph - N/A   Partly Cloudy